FW1492 Weather Reports


time (UTC)temp
C
wind
direction
speed
KPH
gust
KPH
rain 1hr
cm
rain 24hr
cm
rain mn
cm
humidity
%
barometer
mb
20260902110056 16 158 0.0 3.2 0.00 0.51 0.00 100 1019.9
20260902104556 16 134 0.0 3.2 0.00 0.79 0.00 100 1020.0
20260902103050 16 150 0.0 1.6 0.00 0.79 0.00 100 1019.8
20260902101559 16 149 0.0 3.2 0.00 0.79 0.00 100 1020.0
20260902100105 16 147 0.0 3.2 0.00 0.79 0.00 100 1020.0
20260902094549 16 150 0.0 0.0 0.00 0.79 0.00 100 1019.8
20260902093050 16 151 0.0 1.6 0.00 0.79 0.00 100 1019.7
20260902091546 16 145 0.0 1.6 0.00 0.79 0.00 100 1019.5
20260902090045 16 152 0.0 0.0 0.00 0.79 0.00 100 1019.3
20260902084556 16 152 0.0 0.0 0.00 0.79 0.00 100 1019.3
20260902083045 16 152 0.0 0.0 0.00 0.79 0.00 100 1019.0
20260902081542 16 154 0.0 1.6 0.00 0.79 0.00 100 1018.9
20260902080040 16 149 0.0 1.6 0.00 0.79 0.00 100 1018.9
20260902074540 16 150 0.0 3.2 0.00 0.79 0.00 100 1018.8
20260902073049 16 149 0.0 1.6 0.00 0.79 0.00 100 1018.9
20260902071540 16 144 0.0 1.6 0.00 0.79 0.00 100 1018.6
20260902070039 16 147 0.0 1.6 0.00 0.79 0.00 100 1018.6
20260902064543 16 191 0.0 3.2 0.00 0.81 0.00 100 1018.6
20260902063041 16 141 0.0 3.2 0.00 0.81 0.00 99 1018.6
20260902061532 16 124 1.6 3.2 0.00 0.81 0.00 100 1018.6
20260902060034 16 165 1.6 4.8 0.00 0.81 0.00 100 1018.7
20260902054531 17 160 0.0 4.8 0.00 0.81 0.00 100 1018.9
20260902053029 17 143 0.0 3.2 0.00 0.81 0.00 100 1019.1
20260902051528 17 147 0.0 3.2 0.00 0.81 0.00 99 1018.9
20260902050025 17 149 0.0 3.2 0.00 0.81 0.00 99 1019.0
20260902044522 17 149 0.0 3.2 0.00 0.81 0.00 99 1018.7
20260902043022 17 172 0.0 3.2 0.00 0.81 0.00 99 1018.8
20260902041519 17 155 0.0 3.2 0.00 0.81 0.00 99 1018.7
20260902040016 17 165 0.0 6.4 0.00 0.81 0.00 99 1018.5
20260902034512 18 177 0.0 4.8 0.00 1.14 0.00 99 1018.4
20260902033010 18 146 0.0 1.6 0.00 1.14 0.00 99 1018.0
20260902031509 18 162 0.0 1.6 0.00 1.14 0.00 99 1018.0
20260902030011 19 162 0.0 4.8 0.00 1.14 0.00 99 1017.5
20260902024508 20 159 0.0 1.6 0.00 1.24 0.00 99 1017.6
20260902023009 20 160 0.0 0.0 0.00 1.24 0.00 99 1017.3
20260902021507 20 149 0.0 3.2 0.00 1.24 0.00 99 1017.2
20260902020009 21 148 0.0 1.6 0.00 1.24 0.00 99 1016.8
20260902014522 21 145 0.0 0.0 0.00 1.24 0.00 99 1016.7
20260902013008 21 145 0.0 0.0 0.00 1.24 0.00 99 1016.7
20260902011511 21 145 0.0 0.0 0.00 1.24 0.00 99 1016.8
20260902010005 21 146 0.0 1.6 0.00 1.24 0.00 99 1016.5
20260902004504 21 146 0.0 1.6 0.00 1.24 0.00 99 1016.3
20260902003003 21 143 1.6 3.2 0.00 1.24 0.00 98 1015.7
20260902001503 21 145 0.0 3.2 0.00 1.24 0.00 98 1016.0
20260902000003 21 138 0.0 0.0 0.00 1.24 0.00 98 1016.0
20260901234502 21 138 0.0 1.6 0.00 1.37 0.00 98 1015.7
20260901233003 21 138 0.0 1.6 0.00 1.37 0.00 97 1015.7
20260901231600 21 138 0.0 1.6 0.00 1.37 0.00 97 1015.7
20260901231503 21 138 0.0 1.6 0.00 1.37 0.00 97 1015.7
20260901230100 21 138 0.0 0.0 0.00 1.37 0.00 96 1015.7
20260901224606 22 138 1.6 3.2 0.00 1.37 0.00 96 1015.7
20260901223159 23 285 0.0 4.8 0.00 1.37 0.00 95 1016.2
20260901220047 25 40 0.0 0.0 0.10 1.40 0.84 94 1014.9
20260901214557 25 9 0.0 1.6 0.00 1.30 0.71 92 1014.6
20260901213047 26 20 0.0 0.0 0.00 1.30 0.71 91 1015.1
20260901211545 26 20 0.0 0.0 0.00 1.30 0.71 91 1014.9
20260901210056 26 20 0.0 0.0 0.00 1.30 0.71 89 1015.2
20260901204543 26 19 0.0 1.6 0.00 1.30 0.71 89 1014.9
20260901203044 26 356 0.0 1.6 0.00 1.30 0.71 90 1015.1
20260901201538 25 30 0.0 3.2 0.00 1.30 0.71 90 1015.2
20260901200038 25 314 0.0 3.2 0.00 1.30 0.71 91 1015.3
20260901194545 25 35 0.0 1.6 0.00 1.40 0.71 91 1015.3
20260901193036 26 354 0.0 3.2 0.00 1.40 0.71 90 1015.4
20260901191541 25 321 0.0 4.8 0.00 1.40 0.71 90 1015.3
20260901190031 25 308 1.6 6.4 0.00 1.40 0.71 92 1015.3
20260901184529 24 293 0.0 6.4 0.00 1.42 0.71 94 1015.5
20260901183036 24 356 0.0 6.4 0.00 1.42 0.71 97 1015.6
20260901181529 23 342 0.0 1.6 0.00 1.42 0.71 99 1015.4
20260901180021 23 108 0.0 1.6 0.00 1.42 0.71 100 1015.5
20260901174518 23 189 0.0 3.2 0.00 1.42 0.71 100 1015.3
20260901173020 22 56 0.0 1.6 0.00 1.42 0.71 100 1015.1
20260901171511 22 169 0.0 0.0 0.00 1.42 0.71 100 1015.3
20260901170009 21 114 0.0 0.0 0.00 1.42 0.71 100 1015.6
20260901164506 21 326 0.0 6.4 0.00 1.42 0.71 100 1015.9
20260901163005 21 340 1.6 4.8 0.00 1.42 0.71 100 1016.8
20260901161506 21 8 0.0 0.0 0.00 1.42 0.71 100 1016.2
20260901160001 21 8 0.0 0.0 0.05 1.42 0.71 100 1016.1
20260901154618 21 8 0.0 0.0 0.20 1.42 0.71 100 1016.2
20260901154501 21 8 0.0 0.0 0.23 1.42 0.71 100 1016.2
20260901153157 21 8 0.0 0.0 0.25 1.42 0.71 100 1016.7
20260901151558 20 8 0.0 0.0 0.28 1.42 0.71 100 1016.9
20260901150107 20 8 0.0 1.6 0.33 1.40 0.69 100 1017.2
20260901144555 20 32 0.0 1.6 0.18 1.24 0.53 100 1017.6
20260901143055 20 32 0.0 1.6 0.13 1.17 0.46 100 1017.3
20260901141601 20 345 0.0 4.8 0.13 1.17 0.46 100 1017.4
20260901140058 21 36 0.0 0.0 0.03 1.07 0.36 100 1017.2
20260901134553 20 35 0.0 0.0 0.03 1.07 0.36 100 1016.5
20260901133054 20 35 0.0 3.2 0.00 1.04 0.33 100 1016.4
20260901131553 20 89 0.0 3.2 0.00 1.04 0.33 100 1016.9
20260901130050 20 27 0.0 0.0 0.00 1.04 0.33 100 1016.9
20260901124550 20 27 0.0 1.6 0.00 1.04 0.33 100 1016.8
20260901123052 20 25 0.0 3.2 0.00 1.04 0.33 100 1017.0
20260901121547 20 102 0.0 0.0 0.00 1.04 0.33 100 1017.0
20260901120100 20 112 0.0 0.0 0.03 1.04 0.33 100 1016.8
20260901114550 20 112 0.0 0.0 0.15 1.04 0.33 100 1016.4
20260901113053 20 112 0.0 0.0 0.28 1.04 0.33 100 1016.7
20260901111542 20 112 0.0 0.0 0.30 1.04 0.33 100 1016.8